Location: ?????
(37.7324°N, 23.9257°E)
Time: 22:03:45
(UTC+00:00)

Sich 1 - Pass Details

Date: 29 November 2020
Orbit: 593 x 626 km, 82.5° (Epoch: 19 January)

Event Time Altitude Azimuth Distance (km) Brightness Sun altitude
Rises 04:48:44 0° 197° (SSW) 2,888 6.6 -6.3°
Reaches altitude 10° 04:50:59 10° 201° (SSW) 1,989 5.7 -5.9°
Maximum altitude 04:55:19 54° 279° (W) 761 3.2 -5.1°
Drops below altitude 10° 04:59:41 10° 358° (N) 2,007 5.4 -4.3°
Sets 05:01:58 0° 3° (N) 2,917 6.3 -3.9°
